This is the latest recevied weather packets stored in our database for station/object WA6TJQ. If no packets are shown the sender has not sent any weather packets the latest 10 day(s).
| Time | Temp. | Humidity | Pressure | Rain* | Wind** | Luminosity | Snow |
|---|---|---|---|---|---|---|---|
| 1778101776 | 17.78° C | 42% | 1013 hPa | 0 mm | - | - | - |
| 1778101476 | 17.22° C | 41% | 1013 hPa | 0 mm | - | - | - |
| 1778101176 | 17.22° C | 40% | 1013.2 hPa | 0 mm | - | - | - |
| 1778100876 | 17.22° C | 44% | 1013.1 hPa | 0 mm | - | - | - |
| 1778100576 | 17.22° C | 44% | 1013.1 hPa | 0 mm | - | - | - |
| 1778100276 | 17.22° C | 43% | 1012.9 hPa | 0 mm | - | - | - |
| 1778099976 | 16.67° C | 43% | 1013 hPa | 0 mm | - | - | - |
| 1778099676 | 16.67° C | 44% | 1013.1 hPa | 0 mm | - | - | - |
| 1778099376 | 16.67° C | 46% | 1013 hPa | 0 mm | - | - | - |
| 1778099076 | 16.67° C | 45% | 1013.1 hPa | 0 mm | - | - | - |
| 1778098776 | 16.67° C | 46% | 1013.1 hPa | 0 mm | - | - | - |
| 1778098476 | 16.67° C | 48% | 1013.1 hPa | 0 mm | - | - | - |
| 1778098176 | 16.11° C | 48% | 1013.2 hPa | 0 mm | - | - | - |
| 1778097876 | 16.11° C | 46% | 1013.3 hPa | 0 mm | - | - | - |
| 1778097576 | 15.56° C | 48% | 1013.2 hPa | 0 mm | - | - | - |
| 1778097276 | 15.56° C | 47% | 1013.2 hPa | 0 mm | - | - | - |
| 1778096976 | 15.56° C | 47% | 1013.2 hPa | 0 mm | - | - | - |
| 1778096676 | 15.56° C | 48% | 1013.2 hPa | 0 mm | - | - | - |
| 1778096376 | 15° C | 50% | 1013.2 hPa | 0 mm | - | - | - |
| 1778096075 | 15° C | 48% | 1013.1 hPa | 0 mm | - | - | - |
| 1778095776 | 15° C | 51% | 1013.2 hPa | 0 mm | - | - | - |
| 1778095475 | 14.44° C | 49% | 1013.2 hPa | 0 mm | - | - | - |
| 1778095175 | 14.44° C | 51% | 1013.3 hPa | 0 mm | - | - | - |
| 1778094875 | 14.44° C | 53% | 1013.4 hPa | 0 mm | - | - | - |
| 1778094575 | 13.89° C | 50% | 1013.4 hPa | 0 mm | - | - | - |
* Rain latest hour (hover to see other rain measurements)
** Current wind speed in m/s (hover to see current wind gust speed)